Location: Observatoire de Paris
(48.8363°N, 2.3365°E)
Time: 12:40:50
(UTC+01:00)

Altair - All Passes

Search period start: 02 August 2021 00:00
Search period end: 12 August 2021 00:00
Orbit: 1502 x 1682 km, 47.2° (Epoch: 02 August)

Date Brightness Start Highest point End Pass type
(mag) Time Alt. Az. Time Alt. Az. Time Alt. Az.
02 Aug - 00:31:30 10° S 00:38:10 22° SE 00:44:41 10° E visible
02 Aug - 02:32:15 10° SW 02:41:21 55° SSE 02:50:13 10° ENE visible
02 Aug - 04:36:16 10° W 04:45:37 81° S 04:54:48 10° E visible
02 Aug - 06:40:58 10° W 06:50:06 70° SSW 06:59:12 10° ESE daylight
02 Aug - 08:45:50 10° W 08:53:45 34° SW 09:01:44 10° SSE daylight
03 Aug - 00:06:52 10° S 00:13:09 20° SE 00:19:18 10° E visible
03 Aug - 02:07:11 10° SW 02:16:15 52° SSE 02:25:03 10° ENE visible
03 Aug - 04:11:06 10° WSW 04:20:27 81° S 04:29:38 10° E visible
03 Aug - 06:15:47 10° W 06:24:58 72° SSW 06:34:05 10° ESE daylight
03 Aug - 08:20:36 10° WNW 08:28:42 37° SW 08:36:50 10° SSE daylight
03 Aug - 23:42:17 10° SSE 23:48:08 18° SE 23:53:52 10° E visible
04 Aug - 01:42:08 10° SW 01:51:08 50° SSE 01:59:54 10° ENE visible
04 Aug - 03:45:54 10° WSW 03:55:18 80° S 04:04:29 10° E visible
04 Aug - 05:50:36 10° W 05:59:50 74° SSW 06:08:57 10° ESE daylight
04 Aug - 07:55:23 10° WNW 08:03:39 39° SW 08:11:55 10° SSE daylight
04 Aug - 10:04:00 10° WSW 10:06:10 11° WSW 10:08:22 10° SW daylight
04 Aug - 23:17:48 10° SSE 23:23:07 16° SE 23:28:21 10° E visible
05 Aug - 01:17:06 10° SW 01:26:03 47° SSE 01:34:44 10° ENE visible
05 Aug - 03:20:43 10° WSW 03:30:08 78° S 03:39:19 10° E visible
05 Aug - 05:25:25 10° W 05:34:41 76° SSW 05:43:50 10° ESE daylight
05 Aug - 07:30:10 10° WNW 07:38:35 42° SW 07:46:58 10° SSE daylight
05 Aug - 09:37:45 10° WSW 09:41:12 13° SW 09:44:40 10° SSW daylight
05 Aug - 22:53:25 10° SSE 22:58:08 15° SE 23:02:44 10° E visible
06 Aug - 00:52:04 10° SSW 01:00:57 45° SE 01:09:33 10° ENE visible
06 Aug - 02:55:33 10° WSW 03:04:59 77° SSE 03:14:10 10° E visible
06 Aug - 05:00:14 10° W 05:09:32 77° SSW 05:18:42 10° ESE daylight
06 Aug - 07:04:58 10° WNW 07:13:30 44° SW 07:22:01 10° SSE daylight
06 Aug - 09:11:55 10° W 09:16:13 14° SW 09:20:32 10° SSW daylight
06 Aug - 22:29:12 10° SSE 22:33:08 13° SE 22:36:59 10° E visible
07 Aug - 00:27:04 10° SSW 00:35:52 42° SE 00:44:22 10° ENE visible
07 Aug - 02:30:22 10° WSW 02:39:49 75° SSE 02:49:01 10° E visible
07 Aug - 04:35:03 10° W 04:44:23 79° S 04:53:33 10° ESE visible
07 Aug - 06:39:46 10° WNW 06:48:26 47° SSW 06:57:02 10° SE daylight
07 Aug - 08:46:16 10° W 08:51:14 16° SW 08:56:13 10° SSW daylight
07 Aug - 22:05:18 10° SE 22:08:08 12° ESE 22:10:56 10° ESE visible
08 Aug - 00:02:06 10° SSW 00:10:46 40° SE 00:19:11 10° ENE visible
08 Aug - 02:05:12 10° WSW 02:14:40 74° SSE 02:23:51 10° E visible
08 Aug - 04:09:51 10° W 04:19:13 80° S 04:28:24 10° ESE visible
08 Aug - 06:14:35 10° WNW 06:23:21 50° SSW 06:32:02 10° SE daylight
08 Aug - 08:20:44 10° W 08:26:15 18° SW 08:31:47 10° SSW daylight
08 Aug - 21:42:43 10° SE 21:43:09 10° ESE 21:43:34 10° ESE visible
08 Aug - 23:37:09 10° SSW 23:45:42 37° SE 23:53:59 10° ENE visible
09 Aug - 01:40:01 10° WSW 01:49:31 72° SSE 01:58:43 10° E visible
09 Aug - 03:44:39 10° W 03:54:04 81° S 04:03:16 10° ESE visible
09 Aug - 05:49:23 10° WNW 05:58:15 52° SSW 06:07:01 10° SE daylight
09 Aug - 07:55:16 10° W 08:01:15 20° SW 08:07:15 10° S daylight
09 Aug - 23:12:13 10° SSW 23:20:37 35° SE 23:28:47 10° E visible
10 Aug - 01:14:52 10° WSW 01:24:23 70° SSE 01:33:34 10° E visible
10 Aug - 03:19:27 10° W 03:28:54 82° S 03:38:07 10° E visible
10 Aug - 05:24:11 10° WNW 05:33:09 55° SSW 05:41:59 10° SE daylight
10 Aug - 07:29:51 10° W 07:36:15 22° SW 07:42:39 10° S daylight
10 Aug - 22:47:18 10° SSW 22:55:33 33° SE 23:03:33 10° E visible
11 Aug - 00:49:43 10° WSW 00:59:13 68° SSE 01:08:25 10° E visible
11 Aug - 02:54:14 10° W 03:03:44 82° S 03:12:58 10° E visible
11 Aug - 04:59:00 10° WNW 05:08:03 58° SSW 05:16:56 10° SE visible
11 Aug - 07:04:28 10° W 07:11:14 24° SW 07:17:59 10° S daylight
11 Aug - 22:22:25 10° SSW 22:30:29 30° SE 22:38:19 10° E visible
